Theta_e
319 318 318 318 318 320 322 324 319 318 320 313 314 316 316 319 319 320 319 318 318 318 316 315 315 313 316 316 317 317 317 318 318 316 316 321 323 324 322 323 323 322 332 336 339 341 341 345 344 344 345 344 343 343 342 343 341 340 341 340 341 340 340 339 338 339 339 340 340 339 338 338 338 337 337 336 337 337 337 338 338 338 338 338 337 337 337 336 335 333 331 330 329 328 327 326 325
320 320 319 318 319 323 324 322 318 314 315 311 314 317 316 318 318 320 319 318 319 316 314 315 315 314 314 314 316 316 318 317 317 317 316 320 321 324 323 322 325 323 332 336 339 341 343 345 344 344 345 344 344 343 343 342 341 341 340 340 340 340 340 340 339 338 338 339 339 338 338 337 337 337 336 335 335 336 336 336 337 337 338 337 337 338 338 337 336 334 331 330 328 325 323 322 324
320 320 318 319 321 323 323 321 316 311 311 310 312 317 317 318 318 319 318 317 317 314 314 315 314 315 315 316 317 317 318 316 316 316 317 322 323 325 322 322 326 324 330 335 340 342 343 344 344 344 344 344 344 343 343 342 342 341 341 341 340 340 340 340 339 337 337 339 339 338 338 337 335 336 334 333 332 332 333 334 336 337 337 337 337 337 337 336 335 333 330 328 325 323 321 319 318
320 320 318 321 323 322 322 320 316 311 309 310 311 316 319 318 318 318 317 316 315 314 315 316 317 316 316 318 317 316 318 317 316 316 319 325 324 324 322 323 325 324 328 334 340 342 343 344 343 344 343 344 343 343 342 342 342 341 341 341 340 340 340 341 340 339 337 337 338 338 337 336 335 334 332 330 329 330 331 332 335 336 336 336 336 336 336 335 333 332 330 329 327 326 326 325 322
319 319 317 321 325 321 321 319 317 313 310 312 311 315 318 317 317 317 316 315 314 314 315 316 318 315 315 317 316 317 317 317 317 315 319 324 322 323 323 323 325 323 326 333 339 342 343 343 343 343 343 343 343 342 342 342 341 341 341 341 341 339 340 340 339 339 339 337 337 338 337 336 334 333 333 331 329 329 329 331 333 334 335 336 336 336 336 335 332 331 329 329 328 328 328 326 326
318 319 318 320 321 319 320 315 314 313 313 316 314 316 317 316 316 315 316 316 314 314 314 316 317 316 316 315 315 317 316 316 317 318 320 324 322 323 324 324 325 324 325 333 339 342 342 341 342 342 342 342 342 342 342 342 341 342 341 341 341 339 339 339 339 339 339 337 337 337 337 335 334 334 334 333 331 329 328 329 331 333 335 335 336 336 335 335 333 331 330 330 329 329 328 326 326
319 320 321 321 320 320 319 314 313 314 314 316 316 317 316 315 314 313 317 317 315 314 314 315 314 315 315 314 315 315 314 315 317 321 324 325 324 324 326 325 326 326 325 331 337 341 342 341 341 342 341 341 341 342 341 342 342 342 341 341 341 340 339 339 339 339 338 337 335 334 335 333 333 336 336 334 332 330 328 329 330 332 334 335 336 335 334 334 333 332 331 330 329 328 327 326 321
318 320 322 323 322 322 319 315 316 317 315 314 315 316 316 315 313 314 317 317 316 315 314 315 313 315 314 313 316 315 315 316 317 324 328 326 325 325 326 325 326 327 326 329 335 340 341 341 340 342 341 340 341 342 342 341 342 342 341 341 341 340 339 339 339 339 338 337 335 333 333 331 332 336 337 336 334 331 329 330 331 332 333 334 335 334 333 332 332 331 330 328 327 326 324 324 314
318 319 322 322 320 320 317 316 317 317 317 316 315 315 315 314 314 314 316 316 315 314 314 314 314 314 315 314 316 316 318 318 320 326 328 326 325 326 326 326 327 327 327 327 332 338 340 340 340 341 341 341 341 341 342 341 342 342 341 341 340 340 338 338 339 338 337 337 337 335 335 333 332 336 337 337 336 333 330 330 331 331 331 333 332 330 329 328 328 326 326 326 325 325 323 322 309
320 319 322 322 319 316 314 316 317 317 317 316 315 315 314 313 313 314 315 315 313 314 313 312 313 315 315 315 316 316 316 315 319 324 327 328 325 326 327 326 329 329 328 328 332 337 339 338 338 340 340 340 341 341 341 341 341 341 341 340 340 339 338 338 338 337 336 337 337 337 337 334 332 334 337 337 336 335 332 331 331 331 330 330 328 328 328 327 327 326 326 326 326 325 324 322 308
320 318 320 320 315 313 312 314 316 317 316 315 315 314 314 312 313 314 314 314 312 313 313 312 315 315 314 315 315 315 313 312 316 320 326 330 327 327 328 328 330 330 331 330 332 336 337 338 337 339 339 339 340 340 341 340 341 341 340 340 340 339 338 337 337 336 335 336 336 336 336 335 333 333 336 337 336 336 334 332 332 332 330 329 329 329 329 329 329 328 328 327 326 326 323 322 309
319 318 320 317 315 314 314 315 316 318 316 316 315 313 312 311 313 314 315 314 313 314 314 314 314 314 314 316 315 314 313 311 316 320 325 329 329 329 329 330 331 331 332 331 331 333 335 338 338 338 339 339 339 339 339 339 340 340 340 340 340 339 339 338 337 336 334 335 335 335 335 334 333 333 335 336 336 336 335 334 333 332 330 329 330 329 330 329 329 328 327 326 325 324 321 320 310
320 319 319 316 316 317 316 317 316 317 317 316 315 312 310 311 314 314 315 314 314 315 314 313 312 313 314 315 314 314 313 310 315 323 326 328 329 329 329 329 330 331 333 333 333 333 334 336 338 339 338 339 339 338 339 338 339 339 339 339 339 339 339 339 337 337 335 334 335 334 334 334 333 333 335 336 336 336 335 335 334 333 331 331 331 330 329 328 327 326 325 324 323 322 320 320 310
319 318 319 317 316 318 317 317 316 316 315 315 314 312 310 312 313 312 314 315 314 314 313 311 311 314 314 314 314 313 311 309 316 325 326 328 329 328 328 328 328 329 331 333 334 335 335 336 337 338 338 338 338 338 338 338 338 338 338 338 338 339 338 339 337 337 336 334 334 334 334 333 333 333 335 336 336 336 335 335 335 334 332 331 331 330 329 328 326 325 324 323 322 322 319 319 313
317 317 319 317 315 316 316 317 318 316 315 316 314 310 312 312 311 311 313 315 314 312 311 310 311 313 314 314 314 312 309 309 317 323 323 326 327 326 325 326 328 327 329 331 332 334 335 336 336 336 337 338 338 338 339 337 337 338 337 338 338 339 338 338 337 336 335 334 333 334 335 333 332 332 333 335 335 336 335 334 334 334 333 331 331 330 329 328 327 325 325 324 323 322 320 318 315
316 316 318 316 315 315 316 317 318 317 315 316 312 309 313 312 309 312 311 311 313 312 312 312 310 311 312 311 311 308 306 308 314 318 318 320 322 321 320 321 323 324 326 327 330 331 333 336 336 336 336 337 337 338 339 338 337 337 336 337 338 339 339 337 336 336 334 333 333 332 333 332 331 331 332 333 334 334 334 333 333 334 333 331 331 331 329 328 327 325 325 325 324 323 321 318 316
314 317 315 313 314 315 317 318 317 317 315 315 313 311 315 315 311 311 309 309 312 313 312 311 310 310 309 308 307 306 306 307 310 312 313 314 315 315 314 314 315 317 319 321 324 327 330 333 334 336 336 337 337 337 338 338 337 337 336 337 337 338 339 337 335 335 333 332 332 331 332 332 331 332 332 333 333 333 333 333 332 333 333 332 331 330 329 329 327 324 324 324 324 323 323 320 316
316 317 314 311 314 316 317 319 316 316 317 315 313 312 315 316 314 312 311 311 312 314 312 309 308 309 308 307 306 306 307 307 308 310 311 312 312 312 313 312 312 313 313 314 316 319 324 329 332 334 335 336 336 336 337 337 337 336 336 337 336 337 337 336 336 335 335 334 333 332 332 332 332 332 332 332 333 333 333 333 331 331 333 332 331 330 329 329 327 324 323 323 323 323 323 322 319
316 317 315 313 315 315 315 317 315 315 316 315 313 311 313 315 314 312 313 314 314 314 314 311 310 310 309 308 306 306 307 307 308 309 310 310 310 311 311 311 312 312 313 314 314 314 316 320 326 331 333 334 335 336 335 336 337 336 336 337 336 336 336 335 336 337 337 336 335 334 333 333 332 332 332 331 332 332 332 332 331 330 331 332 331 331 329 328 327 325 323 322 322 323 323 322 322
316 317 316 315 315 313 313 314 314 314 313 315 314 310 312 313 312 312 314 315 314 314 313 312 312 311 309 308 306 306 306 307 307 308 309 309 309 309 309 310 311 311 313 314 314 314 314 314 318 324 329 332 334 335 335 335 337 336 336 337 335 335 337 335 334 335 336 335 334 335 335 334 333 332 332 331 330 332 332 331 331 331 330 330 330 330 329 328 327 326 324 323 322 323 324 323 322
316 317 316 315 313 314 313 313 313 312 311 314 313 311 313 312 310 312 314 314 315 313 310 310 311 309 307 307 306 306 306 307 307 307 307 308 308 308 308 308 309 310 312 313 314 315 315 314 313 316 323 329 333 334 335 335 335 336 336 337 335 335 337 336 335 334 333 333 333 335 336 334 333 333 333 332 331 332 331 330 331 332 331 331 330 330 330 328 328 326 324 324 324 323 325 324 323
316 315 315 314 313 315 314 312 312 310 310 312 312 313 313 311 310 312 313 314 314 310 307 307 307 306 305 305 305 306 306 306 306 306 306 307 307 307 307 307 308 310 311 312 313 314 315 315 314 313 316 324 330 332 334 335 335 336 336 335 335 334 335 335 335 336 334 333 333 334 334 333 333 333 334 333 333 333 332 330 331 331 331 331 331 331 330 329 328 326 324 325 325 324 324 324 323
316 315 313 314 313 315 314 312 312 310 311 312 312 312 311 311 312 311 311 312 309 305 305 305 304 304 304 304 305 305 305 305 305 305 305 306 306 306 306 307 308 309 310 311 312 314 316 316 315 314 313 320 328 331 332 334 334 335 334 333 334 333 333 335 335 334 334 333 333 334 333 334 334 333 333 334 334 333 332 331 330 330 331 332 331 330 330 329 328 326 326 326 325 324 324 324 324
316 316 313 313 312 314 314 312 311 310 311 312 310 310 310 312 312 309 308 308 305 304 304 304 304 304 304 304 304 305 304 305 304 304 304 304 305 305 305 306 306 307 309 311 314 316 318 317 316 314 312 319 327 330 331 333 333 333 333 331 332 332 331 333 334 334 333 332 333 334 335 335 334 333 333 334 334 332 331 331 330 330 331 331 330 330 329 329 328 328 327 327 326 325 324 325 324
315 315 314 312 311 312 312 310 310 309 310 310 308 310 311 311 310 308 307 306 304 304 304 303 304 304 304 303 303 304 304 304 304 304 304 304 304 304 305 305 306 307 309 312 316 318 319 319 318 316 316 322 328 329 330 331 331 332 332 331 331 331 331 332 332 332 331 331 331 332 333 333 332 333 333 334 335 332 330 330 330 329 330 329 329 329 329 329 329 328 328 327 326 325 324 325 324
313 313 313 312 312 311 310 310 310 309 308 308 309 311 311 308 308 308 306 305 304 303 303 303 303 303 302 302 303 303 303 303 303 303 304 304 304 304 305 305 305 306 309 314 317 319 320 320 320 319 321 325 327 329 332 332 331 332 331 331 332 330 330 331 330 330 330 330 330 330 331 332 332 333 332 333 334 331 329 328 329 329 329 329 328 329 329 329 329 328 327 327 326 325 324 325 324
311 311 312 311 311 310 309 310 309 308 308 308 310 312 309 306 308 309 306 304 304 303 303 302 303 303 301 302 302 303 303 302 302 302 303 304 303 303 304 304 304 306 310 315 317 319 321 322 322 322 323 326 327 329 331 331 332 332 330 329 330 329 329 329 329 329 329 329 329 329 330 331 332 332 331 331 332 331 329 328 329 329 329 328 328 328 328 328 328 327 326 326 326 325 324 325 323
309 310 312 312 312 311 310 310 308 308 309 307 309 311 308 307 309 309 305 303 304 304 304 302 302 302 301 301 302 302 302 302 302 302 302 302 302 302 302 302 302 305 309 313 316 319 322 323 325 325 325 328 329 330 329 329 330 330 330 329 328 328 328 327 327 327 327 328 328 329 329 329 330 330 330 329 329 329 329 328 328 328 327 327 328 328 327 328 326 325 324 324 324 324 324 323 323
309 310 314 315 315 314 311 310 308 309 310 306 309 312 311 310 309 306 304 304 304 304 304 302 302 301 301 301 301 302 302 301 301 301 301 300 300 300 301 301 301 304 308 312 315 318 321 321 324 326 327 329 329 328 328 327 327 327 328 327 327 327 326 326 325 325 325 326 326 327 328 328 329 329 328 328 328 327 327 327 326 325 325 325 325 326 326 326 324 323 323 322 322 322 321 321 321
310 310 313 315 317 316 312 310 309 311 309 305 309 314 314 311 307 305 305 304 305 306 305 303 302 301 301 301 301 301 301 301 301 300 299 299 299 299 300 301 302 305 308 312 314 316 318 319 322 324 325 326 326 325 325 325 324 325 325 325 325 325 324 324 323 323 323 323 324 324 325 326 326 327 327 326 326 325 325 325 324 324 324 324 324 323 324 323 323 322 322 322 321 320 319 320 319
313 312 312 315 317 315 313 310 310 313 309 305 310 315 315 311 307 306 304 303 304 306 305 303 302 301 300 301 301 301 301 300 300 299 299 298 298 299 299 301 303 306 308 311 313 314 316 317 320 322 322 323 323 323 323 323 323 323 323 323 322 322 322 322 321 321 322 322 322 323 323 323 324 325 325 324 324 324 324 323 323 323 322 323 323 321 322 322 321 321 321 321 320 319 318 318 318
313 314 316 316 315 316 315 310 309 313 309 307 312 315 315 311 308 306 303 303 305 306 305 303 302 301 300 300 300 301 301 300 300 298 298 297 298 298 298 301 303 306 308 310 311 313 315 316 318 320 321 321 321 321 321 321 321 321 321 320 320 320 319 319 319 319 320 320 320 321 321 321 321 321 321 322 322 321 321 321 320 320 320 321 321 321 321 321 320 320 320 320 319 318 317 316 316
314 315 317 318 316 316 316 311 308 310 310 310 312 314 315 312 308 306 303 304 305 306 305 302 302 301 300 300 300 301 301 301 300 298 297 297 297 296 297 300 303 306 308 309 311 313 313 314 317 318 319 319 319 319 320 319 319 319 318 317 317 317 317 316 316 316 316 316 317 317 317 317 317 317 318 318 318 318 318 317 317 317 317 317 318 319 319 319 318 318 318 318 318 317 316 316 317
316 315 316 317 315 314 315 314 310 309 311 312 312 313 314 311 308 306 304 303 305 306 304 302 302 301 300 300 300 300 301 300 299 298 297 296 296 296 297 299 301 305 307 309 312 313 312 313 315 314 313 315 316 316 316 315 315 315 315 313 313 314 313 312 311 312 312 312 312 312 312 313 313 314 314 314 314 314 314 314 314 314 314 314 315 315 315 315 315 315 314 314 314 314 314 314 314
318 317 317 316 314 314 315 315 312 310 312 314 314 314 314 311 308 306 304 302 305 305 303 302 301 300 300 300 300 300 300 299 297 297 296 295 296 296 296 298 300 304 306 308 311 312 312 312 312 313 312 311 312 313 313 312 311 311 310 309 309 309 308 307 307 307 307 307 307 308 308 309 310 310 310 311 310 310 310 310 310 310 311 312 313 313 312 311 312 311 310 310 310 310 310 310 310
318 317 317 316 316 315 314 314 311 310 313 315 315 316 316 313 310 307 304 302 304 304 302 302 301 300 300 300 300 300 299 298 297 296 295 295 295 295 296 297 299 303 305 306 308 310 310 310 311 313 312 309 309 310 309 308 308 307 306 305 304 303 303 303 303 303 303 303 304 304 305 305 306 307 307 307 307 307 307 306 306 306 307 308 309 308 307 307 307 308 308 308 307 307 307 306 307
315 317 317 316 317 316 315 313 310 308 312 315 315 315 316 315 312 308 305 303 304 303 303 302 301 301 300 300 300 299 298 297 296 296 295 295 295 295 296 297 298 301 303 305 307 308 309 309 311 311 309 309 308 307 305 305 304 302 301 300 298 298 298 299 299 300 300 300 301 301 301 302 302 303 303 303 303 303 303 303 303 303 303 303 303 303 302 303 304 304 305 305 305 305 304 303 304
314 316 316 316 317 316 314 312 310 308 312 315 313 313 315 315 312 307 304 305 305 304 304 303 302 301 300 300 299 299 298 297 297 296 295 295 295 295 296 297 298 299 301 303 305 307 307 308 310 308 307 308 308 306 306 305 303 300 299 297 295 295 295 295 296 297 297 298 299 299 299 299 300 300 300 300 300 300 300 300 300 300 300 299 299 299 299 300 300 301 302 303 304 303 302 301 301
314 315 316 317 317 316 314 311 309 308 311 314 313 312 315 315 310 305 304 305 304 303 302 302 301 301 300 300 299 298 298 297 297 297 296 295 295 295 295 296 296 297 298 300 302 304 305 307 308 306 306 308 307 307 306 305 303 301 299 296 295 294 293 293 293 293 295 296 296 297 297 297 298 298 298 298 298 298 297 297 297 297 296 296 295 295 296 296 297 298 299 301 302 301 301 300 299
314 315 315 317 316 317 317 313 309 308 310 312 312 313 315 315 311 305 303 303 302 300 299 300 300 300 300 299 298 298 298 298 297 296 296 295 295 295 295 294 295 296 297 298 300 302 303 305 305 305 306 306 305 305 304 302 300 299 298 296 294 293 291 290 290 290 291 291 292 292 292 293 293 293 293 293 293 293 293 292 291 291 291 291 290 290 291 291 292 293 294 297 299 300 300 299 298
314 314 315 317 316 316 317 314 311 310 310 310 312 315 318 317 315 310 303 300 301 299 299 299 298 299 298 297 298 297 297 297 297 296 296 295 295 294 293 294 294 295 296 297 298 300 301 302 302 303 303 302 301 301 300 299 298 296 295 293 292 291 289 289 288 288 287 287 287 288 288 288 288 288 288 288 288 288 288 288 288 288 288 287 287 287 287 287 288 289 289 291 294 297 297 296 297
316 315 314 315 315 315 315 314 313 315 316 312 312 320 321 316 315 313 306 302 302 300 299 300 299 298 298 298 298 297 296 296 296 296 295 295 294 294 293 293 293 293 294 295 296 297 298 299 300 301 300 300 299 299 298 297 296 294 293 292 291 290 289 288 288 287 287 286 287 287 287 287 287 287 287 287 287 287 287 287 287 287 287 287 287 287 287 287 287 287 287 287 289 292 293 293 294
318 317 314 313 314 315 315 314 315 318 320 313 310 319 322 316 316 313 307 305 304 301 300 300 300 299 298 298 298 297 296 296 295 295 295 294 294 294 293 292 292 292 292 293 295 296 297 298 299 299 299 298 298 298 297 297 295 294 293 292 290 289 288 287 287 287 287 287 287 287 287 287 287 287 287 287 287 287 287 287 287 287 287 287 287 287 287 287 287 287 287 287 287 288 290 291 291
320 317 315 313 313 314 315 315 316 317 317 313 310 315 318 318 317 311 306 307 306 303 302 301 300 300 299 299 298 297 296 296 295 295 294 294 293 293 292 291 290 290 291 292 293 295 296 297 298 298 297 296 296 296 295 295 294 293 292 290 288 288 288 287 287 287 287 287 287 287 287 287 287 287 287 287 287 287 287 287 287 286 286 286 286 286 286 286 286 286 286 286 286 286 287 289 290
318 313 311 312 313 315 315 315 315 314 315 317 315 313 316 319 316 310 306 309 310 308 304 302 301 300 299 299 298 297 296 296 295 295 294 294 293 292 291 290 289 289 290 290 291 293 294 295 296 296 295 294 294 294 294 293 293 292 291 289 288 287 287 287 287 287 287 287 287 286 286 286 286 286 286 286 286 286 286 286 286 286 286 285 285 285 285 285 285 285 285 285 285 285 285 286 287
313 309 310 311 311 313 313 315 315 313 315 320 319 315 318 321 318 314 310 311 314 312 307 304 302 300 300 299 298 297 296 295 295 295 294 293 292 291 290 289 289 288 288 289 289 290 291 292 293 294 293 292 292 292 292 292 292 291 290 289 288 287 287 287 287 287 286 286 286 286 286 286 285 285 285 285 285 285 285 285 285 285 285 285 285 285 284 284 284 284 284 284 284 284 284 284 284
310 310 312 312 311 311 311 312 313 315 318 320 318 316 317 320 319 317 316 313 313 312 307 304 303 301 300 300 298 297 295 295 295 294 294 292 291 290 289 289 288 287 287 288 288 289 290 291 292 292 291 291 291 291 291 291 290 290 289 289 288 288 287 287 287 287 286 286 286 285 285 285 285 285 285 285 285 285 285 285 285 285 285 285 284 284 284 284 284 284 284 284 284 284 284 284 284
310 314 314 315 314 312 313 313 313 319 322 316 311 312 315 319 319 316 316 312 310 310 309 305 303 301 300 300 298 297 296 295 294 294 293 292 291 290 289 289 288 287 287 287 288 289 289 290 291 291 290 290 290 289 289 289 289 289 288 288 288 288 288 287 287 287 286 286 286 285 285 285 285 285 284 284 284 284 284 284 284 284 284 284 284 284 284 284 284 284 284 284 284 284 284 284 284
311 314 315 320 320 316 318 318 316 320 319 310 307 310 313 317 317 315 314 311 308 308 307 305 303 301 301 300 298 297 296 295 294 293 293 292 291 290 290 289 289 288 288 287 287 288 289 289 289 290 289 288 288 288 289 289 288 288 288 288 288 287 287 287 287 286 286 286 285 285 285 284 284 284 284 284 284 284 284 284 284 284 284 284 284 284 284 284 284 284 284 284 284 284 284 284 284
311 314 317 322 322 320 322 320 316 318 315 307 306 310 314 316 315 314 312 308 305 303 303 303 303 302 301 300 298 297 296 295 294 293 293 293 292 291 290 289 289 288 288 287 287 288 288 288 288 289 288 288 288 288 288 288 288 288 288 288 288 287 287 287 286 286 286 285 285 285 285 284 284 284 283 283 283 283 283 283 283 283 283 283 283 283 283 284 284 283 283 284 284 283 284 283 283
312 314 317 320 321 322 324 321 319 319 313 307 307 312 317 317 313 309 305 302 300 300 299 300 302 302 301 300 298 297 296 295 294 294 294 293 292 291 290 290 289 288 288 287 287 287 287 288 288 288 288 288 288 288 288 288 288 288 288 287 287 287 287 286 286 286 286 285 285 285 284 284 283 283 283 283 283 283 282 282 283 283 283 283 283 283 283 283 283 283 283 283 283 283 283 283 283
312 311 314 318 319 318 317 315 314 313 312 311 310 313 315 314 310 302 300 300 299 300 299 299 301 301 300 299 298 297 296 295 294 293 294 293 291 291 290 289 289 288 288 287 286 287 287 288 288 288 288 288 288 288 288 288 287 287 287 287 287 287 287 287 286 286 286 286 285 285 284 284 284 283 283 283 283 283 282 282 283 283 283 283 283 283 283 283 283 283 283 283 283 283 283 282 282
312 311 314 315 314 314 314 312 308 309 316 317 312 313 313 312 311 304 301 303 301 300 300 300 300 300 299 299 299 298 297 296 295 294 294 293 291 291 290 289 289 288 287 287 286 287 287 288 288 288 288 288 288 288 287 287 287 287 287 287 287 287 287 287 287 287 287 286 286 286 285 285 284 284 284 283 283 283 283 283 283 283 283 283 283 283 283 283 283 283 283 282 282 282 282 281 281
312 314 315 313 312 314 314 317 314 313 319 318 313 315 315 314 315 308 304 306 305 302 301 300 299 299 299 300 299 298 297 296 295 294 294 293 291 291 290 289 289 288 287 287 286 287 287 288 288 288 288 288 287 287 287 287 287 287 287 287 287 287 287 287 287 287 287 287 287 286 286 286 285 285 285 284 284 283 283 283 282 282 282 282 283 283 283 283 283 282 282 282 282 282 281 281 280
311 312 314 313 316 317 314 317 319 318 320 318 313 314 314 316 317 312 310 310 307 304 302 300 300 299 299 300 300 298 297 296 295 294 294 293 292 291 290 289 289 288 287 287 286 286 287 287 287 287 287 287 287 287 287 287 287 287 287 287 287 287 287 287 287 287 287 287 287 287 287 286 286 285 285 284 283 283 283 282 282 282 282 282 282 282 282 282 282 282 282 282 282 282 281 281 280
308 309 311 312 314 316 315 315 317 319 320 318 316 314 314 315 315 314 314 312 309 306 303 301 301 300 300 300 300 299 298 296 295 294 294 294 292 291 290 289 289 288 287 286 286 286 287 287 287 287 287 287 287 287 287 287 287 287 287 287 287 287 287 287 287 287 287 287 287 287 286 286 286 285 284 284 283 282 282 282 282 282 282 282 282 282 282 282 282 282 282 282 282 282 281 281 280
309 311 313 312 311 312 314 313 313 315 318 317 318 319 316 313 313 314 314 313 311 308 305 303 303 302 301 300 300 300 298 297 296 295 294 293 292 291 290 289 289 288 287 286 286 286 286 287 287 287 287 287 287 287 287 287 287 287 287 287 287 287 287 287 287 287 287 287 287 286 286 285 285 284 284 283 282 282 282 281 281 281 282 282 282 282 282 282 282 282 282 281 281 281 280 280 280
312 313 314 314 314 313 316 317 312 311 315 316 316 320 318 312 309 311 312 312 311 308 306 305 304 303 302 300 300 300 299 298 296 295 294 293 292 291 290 289 288 288 287 287 286 286 286 286 287 287 287 287 287 287 287 287 287 287 287 287 287 287 287 287 287 287 287 287 286 285 285 284 284 284 283 282 282 282 281 281 281 281 281 281 281 281 281 281 281 281 281 280 280 280 279 279 279
Wind_Speed
8 7 6 6 5 3 1 2 1 2 0 4 3 1 3 1 2 1 2 1 0 2 1 2 1 2 2 3 4 4 3 5 6 4 4 3 2 1 8 3 2 8 15 22 20 16 19 17 16 15 14 13 13 12 12 11 10 10 9 9 9 8 8 8 9 9 9 8 8 8 8 8 7 7 6 6 6 6 6 7 7 6 7 6 6 7 8 8 8 8 8 9 9 9 8 7 5
7 5 6 5 5 3 1 2 1 3 2 5 2 1 3 1 1 1 4 3 2 3 2 3 2 2 4 4 4 3 0 2 5 3 3 2 2 3 6 5 2 9 17 22 20 16 17 15 17 15 14 14 13 12 12 11 10 10 9 9 9 8 7 7 8 9 8 8 7 7 7 7 7 6 5 5 5 6 6 6 7 6 5 5 5 6 7 7 8 9 10 10 10 11 11 10 8
7 6 7 3 3 2 1 1 1 3 3 4 3 2 1 1 2 3 4 3 4 3 3 2 2 1 4 3 1 1 3 1 3 1 1 4 3 4 3 7 0 8 18 21 20 15 15 16 18 17 15 15 14 13 11 11 10 10 9 9 8 7 6 6 7 8 8 7 7 7 7 7 6 5 4 3 4 5 5 5 6 5 4 4 5 6 6 7 8 10 11 10 11 12 13 13 11
5 7 6 3 1 0 1 0 1 2 3 3 4 3 0 1 3 3 3 4 3 3 2 2 2 1 3 1 2 1 4 3 3 3 1 5 7 6 4 7 0 7 18 21 20 15 14 16 19 18 16 16 14 13 11 11 10 10 9 9 8 6 6 6 6 7 8 7 7 7 6 6 5 5 4 3 3 4 4 5 5 4 4 4 5 6 6 8 10 10 9 10 13 14 15 16 15
5 7 6 2 2 1 0 1 1 1 3 2 3 4 1 0 2 3 3 3 2 1 2 3 0 2 1 2 3 2 5 2 3 6 3 4 10 5 7 5 1 7 16 20 19 14 12 17 20 18 16 16 14 13 12 11 11 10 10 9 8 6 5 6 5 5 8 7 6 6 6 6 5 5 4 3 4 4 4 4 4 4 4 5 7 8 7 7 10 10 9 11 14 16 16 17 16
5 5 6 4 1 1 1 3 2 3 3 2 4 5 2 1 2 4 3 1 1 0 1 2 2 1 1 2 2 3 5 4 3 6 6 6 10 3 8 4 3 7 15 19 17 12 11 17 19 17 16 15 14 13 12 11 11 10 10 9 8 7 6 5 5 5 7 7 6 6 6 5 5 5 4 4 4 4 5 4 4 4 5 7 8 7 6 5 9 9 8 12 15 16 17 17 16
4 2 3 3 2 1 1 4 4 4 3 3 3 4 3 3 2 4 1 1 2 2 1 1 3 3 2 1 1 2 6 7 5 7 10 9 7 3 8 5 4 7 14 16 16 11 10 17 19 17 16 15 13 12 12 11 11 10 9 9 8 8 6 6 5 5 7 7 7 6 6 5 5 5 3 3 4 4 4 4 4 4 5 7 5 5 6 6 6 6 8 13 15 16 17 16 14
5 2 1 1 2 1 2 5 3 2 2 1 3 1 3 4 2 3 1 1 1 1 1 1 2 2 3 1 1 5 8 12 8 9 10 6 4 5 8 5 5 6 12 14 15 11 10 17 18 16 16 15 14 12 12 11 11 10 9 9 8 7 6 6 6 5 6 6 7 7 6 5 5 5 3 3 3 3 4 4 4 4 4 4 3 3 4 4 5 6 10 13 14 15 16 16 13
4 3 1 1 1 2 3 4 3 1 1 1 2 2 2 3 2 3 1 1 1 1 2 2 3 2 2 1 4 5 8 15 9 10 12 8 6 5 7 5 5 5 10 13 14 9 9 16 17 17 16 15 15 13 11 11 11 10 9 8 7 6 5 5 6 5 6 6 6 7 6 4 4 4 3 3 3 3 3 4 4 4 3 3 2 2 4 6 7 10 11 12 14 14 16 16 13
2 3 1 1 1 3 4 2 3 2 1 1 3 3 2 1 2 3 2 2 1 1 2 2 2 2 2 3 5 3 7 16 12 12 14 11 7 5 5 5 5 3 7 10 9 6 9 16 18 17 16 16 15 13 12 11 11 11 9 8 8 6 5 6 6 6 7 7 6 6 6 4 4 4 4 4 3 3 3 4 4 3 2 2 2 3 6 8 9 10 11 12 13 14 16 16 12
0 2 0 1 2 4 4 3 3 2 1 1 1 2 2 1 3 2 2 1 1 2 2 1 1 2 0 3 4 3 6 16 18 15 14 11 8 5 4 4 4 3 4 7 8 6 7 12 17 18 17 16 15 15 13 11 11 11 10 9 8 8 6 6 7 6 7 8 7 6 5 5 5 5 5 5 4 3 3 4 4 3 2 2 2 4 7 8 8 9 10 11 13 14 16 15 11
1 1 1 2 2 2 2 3 4 3 3 2 3 2 1 2 3 1 1 1 1 1 2 0 1 1 2 4 3 3 7 18 19 14 11 10 9 6 4 3 3 3 3 5 8 9 7 7 13 17 17 17 16 16 14 13 12 11 11 10 9 8 7 6 7 6 6 8 8 7 6 5 6 6 6 5 4 3 4 4 4 3 2 1 2 6 7 7 8 9 10 12 13 14 15 14 10
0 1 2 2 1 0 2 3 3 3 4 3 2 2 0 2 2 2 2 1 0 0 3 3 1 2 2 3 2 2 8 18 17 12 10 8 8 7 4 3 3 4 4 4 5 8 9 7 8 11 16 18 17 17 16 15 14 13 11 10 10 9 8 7 7 6 6 8 9 8 8 7 7 8 7 6 5 4 4 5 4 3 2 1 3 6 7 8 9 10 11 13 14 14 15 13 10
1 0 1 2 0 1 2 2 4 4 4 3 1 1 2 2 2 2 3 3 1 2 3 2 3 3 1 0 2 2 9 19 16 10 8 7 6 6 5 4 4 4 4 5 4 6 7 8 8 9 12 16 16 16 16 16 15 14 12 11 11 11 9 8 6 6 6 8 10 9 9 9 9 8 8 6 5 5 4 4 4 4 2 1 3 6 8 10 11 12 13 14 14 15 15 13 10
0 1 1 3 2 2 2 1 3 4 4 4 2 2 2 1 2 1 2 5 2 3 2 1 2 4 1 2 1 3 13 17 13 9 7 4 4 5 7 6 5 5 4 4 5 6 7 8 9 10 10 12 13 13 13 15 16 15 14 12 12 12 11 9 7 7 7 7 9 10 10 10 10 10 9 7 5 4 3 2 3 3 2 1 4 7 8 10 11 13 13 14 15 16 16 14 10
0 1 1 3 3 2 3 2 2 3 4 3 2 2 3 4 1 1 2 4 2 1 2 1 1 4 4 4 5 9 14 13 9 6 5 3 4 5 7 6 6 5 4 3 3 5 8 9 9 10 10 10 11 12 12 13 15 16 16 14 13 12 12 12 10 8 8 8 9 11 10 10 10 10 11 8 5 4 4 3 3 3 2 1 4 6 7 9 11 13 14 15 16 16 17 16 12
1 1 1 3 2 3 4 5 4 2 5 4 1 2 3 2 3 1 1 2 3 1 2 5 6 6 6 4 6 9 11 12 9 5 5 6 6 6 7 8 7 6 5 3 1 2 5 8 9 10 10 10 10 11 11 12 14 16 15 14 14 12 12 12 10 10 9 8 9 10 10 9 9 9 10 9 7 6 5 5 4 5 5 3 3 5 5 7 11 13 13 15 17 16 17 18 14
1 1 1 2 2 2 4 6 4 2 5 5 1 1 3 2 1 1 2 3 3 3 3 7 8 9 8 6 7 8 10 13 12 11 11 11 10 8 9 10 9 8 7 6 4 3 3 6 9 10 9 9 10 9 10 11 13 15 14 13 13 12 11 11 11 10 9 9 9 9 9 9 8 7 9 8 7 7 6 7 5 5 6 6 5 4 4 7 11 11 12 15 17 17 16 18 17
1 0 0 1 2 1 1 3 3 1 4 5 2 0 2 3 2 2 2 1 2 2 5 7 6 8 8 9 10 11 12 14 15 15 15 14 12 11 10 10 10 11 11 9 8 6 4 5 8 10 9 8 8 10 10 9 11 13 13 12 13 12 12 12 11 10 10 10 10 9 9 9 8 8 9 9 8 7 7 7 7 6 6 8 8 4 4 7 9 9 12 14 15 17 16 16 17
0 1 0 3 2 1 1 2 1 1 2 2 3 2 3 1 1 2 4 4 1 2 4 2 2 5 6 8 11 11 11 13 14 14 14 14 12 11 10 11 11 12 13 12 10 9 7 6 7 9 10 8 7 10 10 8 8 10 11 11 12 13 12 11 10 10 11 12 12 11 10 10 10 9 9 10 9 7 6 7 8 8 8 9 10 6 4 6 7 9 12 12 13 15 15 15 16
1 1 2 4 2 1 3 3 1 1 1 1 2 3 3 1 1 3 4 5 2 4 5 4 3 5 5 7 9 10 11 12 14 14 14 13 12 11 10 10 10 11 13 12 12 10 8 6 7 8 10 9 8 9 10 9 8 9 10 10 11 12 13 11 10 10 9 9 11 11 11 11 11 10 11 10 8 7 6 6 8 8 8 10 11 8 5 6 5 8 10 8 11 13 13 14 14
1 1 3 4 2 1 4 3 2 2 2 2 2 2 1 2 2 3 4 5 0 3 5 5 4 5 4 6 7 8 11 12 13 14 13 12 12 11 11 10 10 12 13 13 13 11 9 7 5 7 9 9 7 8 9 8 8 8 9 8 8 9 10 10 10 11 9 8 10 11 11 12 11 11 11 11 9 8 6 6 8 10 10 12 13 10 7 7 5 6 6 5 10 12 12 13 13
1 2 1 1 2 1 3 4 4 4 3 3 3 0 1 3 3 2 2 3 3 4 4 4 5 4 4 5 7 8 10 10 11 12 11 11 11 12 12 11 11 12 12 13 12 12 11 8 5 4 7 8 5 6 7 7 7 7 7 6 6 6 7 7 5 7 8 7 9 11 13 13 11 12 12 11 10 9 6 6 8 10 12 12 12 12 9 7 6 7 5 5 8 10 12 12 12
2 1 2 2 2 3 1 3 3 5 5 3 2 1 3 5 3 2 2 2 4 3 4 4 4 5 5 7 8 8 9 9 9 8 8 8 9 10 11 10 11 11 11 13 12 13 13 10 7 1 7 7 4 5 6 6 6 6 5 4 4 5 5 5 3 2 3 4 7 8 11 13 11 12 13 13 13 11 8 6 6 8 9 9 10 11 11 10 8 8 6 7 7 8 11 11 12
1 0 2 2 2 4 3 3 4 5 5 2 3 4 5 3 2 3 3 4 4 3 4 3 3 6 7 8 8 8 8 8 8 8 7 7 8 9 10 11 10 11 13 14 13 12 12 12 9 3 7 7 6 7 6 5 5 5 5 3 2 3 1 2 1 2 1 1 3 4 5 9 11 10 10 14 17 13 8 5 4 5 6 6 8 10 13 13 11 9 7 8 8 7 9 10 11
1 1 1 1 2 3 3 5 5 5 3 3 5 5 2 2 2 3 3 4 4 4 4 3 4 7 8 7 8 8 8 8 9 8 8 8 8 10 12 13 12 13 14 14 13 13 13 13 11 7 7 8 8 8 8 6 6 6 6 3 4 6 4 3 4 5 3 3 3 1 2 2 6 6 6 11 15 9 3 4 3 4 4 5 7 9 15 15 13 11 8 8 8 8 9 9 10
1 1 3 4 3 2 3 4 3 2 2 4 5 3 3 2 2 1 4 6 5 4 5 5 5 7 7 6 6 6 7 8 8 8 9 9 10 13 13 14 15 14 14 14 15 14 14 14 13 10 9 9 10 11 11 10 10 10 9 5 5 8 6 7 7 7 6 6 6 3 4 4 2 1 1 3 6 4 1 1 1 2 4 5 6 7 11 13 13 12 10 9 8 8 9 9 9
1 3 5 5 4 3 2 2 1 1 2 4 5 2 4 3 2 1 4 6 5 4 6 5 5 5 4 4 5 5 7 8 8 8 10 11 10 12 12 13 15 14 15 15 15 15 14 14 13 13 12 12 13 15 13 11 12 12 11 8 7 9 9 9 9 9 10 9 8 7 6 6 5 6 5 3 1 1 0 1 1 1 2 4 6 6 8 11 12 12 10 9 8 8 8 8 8
1 3 5 6 5 3 1 1 0 1 1 2 4 3 4 5 3 4 4 5 5 4 5 4 4 3 3 4 4 5 6 7 8 9 10 10 9 10 11 12 13 13 15 16 16 16 16 16 15 14 13 14 15 15 15 14 13 14 14 12 9 10 9 10 11 10 10 10 9 8 8 8 7 7 6 5 4 3 3 4 4 4 5 4 3 4 6 8 9 9 8 7 7 7 7 8 7
1 0 3 6 6 1 2 1 1 1 2 2 3 4 3 6 5 4 3 4 5 3 3 3 2 3 3 4 3 4 6 7 8 9 9 9 9 9 10 11 12 13 15 16 18 18 18 19 19 17 16 17 17 16 18 19 18 17 18 17 14 13 14 14 15 15 13 13 12 10 9 8 8 8 6 5 6 6 6 6 7 7 6 6 6 4 2 3 4 5 6 6 6 6 6 7 7
2 1 1 2 4 1 3 1 2 1 2 2 5 5 1 7 6 4 2 2 5 3 3 2 2 3 3 3 3 3 5 6 7 8 9 9 8 9 10 11 11 13 15 17 19 19 20 21 23 23 21 22 23 22 23 24 24 23 22 22 20 20 20 20 20 20 17 17 16 14 13 12 11 10 8 7 7 8 8 8 8 7 6 5 6 7 6 5 6 7 7 8 8 9 8 9 9
1 3 3 2 2 1 3 2 2 1 2 2 5 4 0 6 6 5 3 2 5 4 3 2 2 3 2 2 2 2 4 5 6 8 9 9 9 9 9 9 11 13 16 18 19 21 22 24 25 26 25 25 27 26 26 26 26 25 25 25 25 24 24 25 25 24 22 22 21 20 19 19 18 16 14 13 12 11 11 11 12 11 10 8 8 9 8 8 8 8 7 7 8 9 9 10 10
1 3 4 2 2 3 1 2 2 2 1 2 4 3 1 4 5 4 2 2 5 5 3 2 2 2 2 1 1 2 3 3 5 8 10 9 9 9 8 8 10 13 16 18 20 22 23 25 27 27 27 27 27 27 26 26 25 25 26 26 27 27 27 28 27 26 26 25 24 24 23 22 22 21 20 19 18 18 16 16 16 13 12 12 11 10 9 9 9 7 7 7 6 6 7 8 9
2 2 4 3 3 3 2 2 2 1 2 2 2 4 3 4 5 2 2 1 4 5 4 3 2 1 1 1 1 2 2 3 5 7 9 9 8 8 7 8 10 14 16 18 21 23 24 26 27 28 29 29 28 29 29 29 28 28 29 29 28 28 28 29 28 26 27 26 26 25 24 23 23 22 22 21 20 20 20 19 18 16 15 15 15 14 13 11 11 10 10 9 8 7 7 7 8
3 3 4 3 3 5 4 2 1 1 3 4 3 6 6 5 5 2 2 2 4 5 4 3 3 2 2 1 2 2 2 3 4 6 7 7 7 7 6 8 12 14 16 19 21 23 25 27 28 30 32 32 31 31 31 31 30 29 29 29 29 28 28 28 28 27 26 25 25 24 23 23 21 21 21 21 21 20 20 20 19 18 17 16 16 17 16 15 14 13 13 12 11 10 11 11 11
2 3 3 4 4 5 3 1 1 2 4 7 7 10 9 6 8 5 4 3 4 4 4 4 4 3 3 2 2 2 2 3 3 4 5 6 6 6 6 9 12 15 17 18 21 22 24 26 28 29 30 31 31 29 29 30 30 29 29 29 29 30 28 28 28 27 26 25 25 24 24 23 21 21 21 20 20 20 20 20 19 19 19 18 18 19 19 17 16 15 14 14 13 13 14 15 15
2 2 2 5 6 6 1 2 1 1 4 7 7 10 12 9 7 7 5 4 4 5 5 5 5 4 4 4 4 3 3 3 2 2 4 5 5 5 8 11 12 14 17 19 20 21 23 24 25 26 27 28 28 27 26 27 27 27 28 29 29 29 29 29 29 28 28 27 26 25 25 25 23 23 22 22 22 22 22 21 21 21 21 21 21 20 19 18 17 16 14 14 15 15 16 18 18
2 3 4 5 7 7 2 2 1 1 3 6 3 6 13 11 4 7 5 5 6 5 5 5 5 5 4 4 5 4 3 3 2 3 4 4 4 6 9 12 13 14 16 19 21 21 21 22 23 23 24 25 26 25 25 25 25 26 28 29 29 29 30 30 31 30 29 28 27 27 26 26 25 25 24 23 24 24 24 23 23 23 23 23 22 21 20 19 19 18 14 11 13 14 14 18 20
3 3 4 5 4 4 3 2 2 2 3 4 1 5 12 9 4 7 6 6 4 3 3 3 3 4 4 4 3 4 4 3 4 4 4 4 4 6 8 11 13 14 16 18 21 22 22 22 23 23 24 24 24 24 24 25 26 27 29 30 31 32 32 32 32 31 30 29 29 29 29 28 27 27 26 25 26 26 26 26 25 25 25 25 25 24 25 24 23 22 19 13 10 11 13 16 19
6 4 5 6 2 2 4 1 3 3 2 3 3 5 10 8 4 7 6 5 3 2 2 2 2 2 2 2 2 3 5 5 5 4 4 4 5 6 7 9 12 14 16 18 21 22 24 25 25 25 25 25 25 25 26 27 28 29 31 32 33 34 34 33 33 32 32 31 31 31 31 30 30 29 29 28 28 28 28 28 28 28 28 28 28 28 28 28 27 25 24 20 13 11 12 14 16
7 7 8 8 5 6 7 1 2 3 3 2 3 7 9 8 7 5 5 5 4 3 4 3 3 2 2 2 2 3 4 4 5 5 5 5 5 6 6 7 11 14 16 18 20 22 25 26 27 28 28 28 29 29 29 31 32 32 33 32 31 32 31 31 30 30 31 31 31 32 31 31 30 30 30 30 29 29 28 29 28 28 28 28 28 28 28 27 27 26 25 24 19 13 12 12 13
5 9 12 12 9 8 5 2 0 4 4 3 2 6 5 2 5 5 4 5 5 4 4 6 5 5 5 4 5 4 3 3 3 4 5 5 5 5 5 6 8 11 14 16 19 21 24 26 28 29 29 30 30 30 30 31 32 31 29 27 25 26 25 25 25 25 27 29 30 30 30 29 29 29 29 29 28 28 27 27 27 27 27 27 27 27 27 25 25 25 24 24 22 17 12 13 13
5 4 9 12 10 6 5 5 4 4 3 1 1 6 5 1 3 3 4 4 5 5 6 7 7 6 7 6 6 6 5 4 3 4 4 5 5 5 5 5 6 9 13 16 19 21 23 25 27 28 29 29 29 29 29 29 30 30 29 29 28 27 24 23 24 25 27 28 28 28 27 27 28 28 27 27 26 26 26 26 25 26 26 26 25 25 25 24 23 23 23 22 23 21 16 13 13
3 1 3 8 8 8 8 7 6 3 2 0 3 4 5 6 3 3 4 4 6 8 9 9 9 9 9 8 7 7 6 5 5 5 5 5 5 5 6 5 7 10 14 17 19 21 23 24 25 26 27 27 27 28 28 29 30 30 31 33 32 30 28 27 27 27 27 27 26 26 26 25 25 25 25 25 25 24 24 24 24 24 24 24 24 24 23 22 21 21 21 21 21 21 19 14 12
1 2 1 4 4 5 6 6 5 2 1 4 5 4 4 7 4 3 3 4 8 10 12 12 12 11 10 10 8 7 6 5 5 6 6 6 6 5 6 6 8 13 16 19 21 23 24 24 24 26 26 27 28 28 28 28 29 30 31 33 33 31 30 28 27 27 26 25 25 25 24 24 24 24 24 23 23 23 23 23 23 23 23 23 22 22 21 20 20 20 19 20 19 19 19 16 13
3 5 5 6 4 4 3 4 3 2 3 8 8 9 6 6 5 5 3 4 9 8 10 12 12 12 11 10 10 8 7 6 5 6 6 6 6 5 6 7 10 15 18 20 23 25 26 27 27 28 29 29 29 28 28 28 28 29 30 31 32 31 29 27 26 25 24 23 24 24 23 23 22 22 22 21 21 21 21 21 21 21 21 21 20 20 20 19 19 19 19 18 18 17 17 16 15
7 7 6 7 5 4 2 1 2 2 6 7 8 12 9 6 4 8 5 3 4 4 7 10 12 12 12 11 10 9 8 7 6 6 7 6 6 6 7 8 10 15 18 20 23 26 28 29 29 30 30 29 29 28 28 28 28 28 29 29 29 29 28 26 25 24 23 22 22 22 21 21 21 20 20 20 20 20 20 19 19 20 19 19 20 20 19 19 19 19 19 18 18 17 17 16 15
4 4 5 4 2 2 2 2 3 5 5 2 1 5 9 8 4 5 4 2 2 3 7 13 15 14 13 11 10 10 9 8 8 7 8 8 8 8 8 8 10 13 17 20 23 26 28 29 30 30 30 29 29 29 28 28 27 28 28 28 28 27 26 25 24 23 22 21 21 20 19 19 19 19 18 18 18 18 18 18 18 18 18 18 19 19 19 19 19 18 19 18 18 18 18 17 16
3 4 7 6 3 3 4 3 4 6 4 2 2 2 5 8 7 7 4 3 3 2 2 9 15 15 14 13 11 10 8 8 8 7 8 9 10 10 10 10 11 12 15 20 24 27 28 29 30 31 30 29 29 28 28 28 28 28 27 26 26 25 24 24 23 22 21 20 19 18 18 18 17 17 17 17 17 17 17 17 17 17 18 18 18 18 18 18 18 18 18 18 18 18 18 18 17
7 8 8 7 5 4 5 4 3 4 1 2 1 3 3 5 6 9 5 2 3 3 3 1 10 15 14 13 11 9 9 8 8 7 8 9 10 11 11 11 11 11 14 19 24 26 29 29 29 31 30 29 29 28 28 28 27 26 25 25 24 23 23 23 22 21 19 18 17 17 17 17 17 17 17 17 16 16 16 16 17 17 17 18 18 18 19 19 18 18 18 18 18 18 18 17 17
7 4 3 5 5 4 4 4 3 2 2 2 1 3 4 3 1 2 2 3 3 2 2 1 5 10 11 11 11 10 9 9 8 7 8 10 11 11 11 11 11 12 14 19 23 26 28 29 30 31 31 29 28 28 27 27 26 25 24 23 23 22 22 22 21 20 18 17 17 16 17 16 16 16 16 16 16 16 17 17 17 18 18 19 19 19 19 19 19 19 19 18 18 18 18 17 16
3 1 1 4 4 2 1 1 0 2 1 2 3 3 3 2 2 2 1 1 2 2 2 2 6 9 9 10 10 10 9 9 8 8 8 11 11 11 11 11 11 12 15 19 23 26 28 30 30 30 30 29 28 27 27 26 25 24 23 22 21 21 21 21 20 19 18 17 17 16 16 16 16 16 16 16 17 17 18 18 18 19 19 20 20 20 20 20 20 19 19 19 19 19 19 18 17
4 3 5 3 2 1 1 0 2 1 5 3 5 5 3 1 2 3 3 2 4 3 3 5 7 10 11 10 10 10 10 9 9 9 9 12 12 12 12 12 12 14 17 20 23 26 28 30 31 30 30 29 27 26 26 25 25 24 22 21 21 20 20 20 19 18 17 17 16 16 15 15 15 14 14 15 15 16 16 16 17 17 17 17 18 18 18 18 19 19 19 19 19 19 19 18 17
5 5 6 3 1 1 1 3 1 2 6 3 4 8 6 5 3 2 4 4 6 6 6 6 7 10 12 11 11 11 10 9 9 10 11 12 14 13 13 13 14 15 18 21 24 26 28 30 30 30 30 29 27 26 25 25 24 23 22 21 20 20 19 18 18 17 16 15 15 14 14 14 13 13 13 13 13 13 14 15 15 15 16 16 16 17 17 17 18 18 18 18 18 19 19 18 17
1 2 3 2 3 4 3 4 3 4 6 4 4 6 6 8 6 4 6 8 10 10 9 9 11 12 12 12 13 12 11 10 10 10 11 13 15 15 15 16 15 16 18 21 24 26 28 29 30 29 29 28 27 26 25 24 23 23 22 21 19 18 18 17 15 14 13 13 13 12 12 12 12 12 12 12 12 12 13 14 14 15 15 16 16 16 17 17 17 17 17 17 18 18 18 18 18
1 1 3 1 3 3 3 3 2 3 5 3 2 3 4 8 7 10 12 11 12 13 10 10 13 14 13 13 13 14 13 12 11 10 11 13 16 16 17 17 16 18 20 22 24 26 28 29 29 29 29 28 26 25 25 24 22 22 21 20 18 17 16 14 13 12 11 11 10 10 10 10 10 11 11 11 11 11 12 13 14 14 15 15 16 16 17 17 17 17 17 16 17 17 18 17 18
6 6 8 5 2 0 2 2 1 2 4 3 4 5 3 4 4 9 12 9 10 13 12 11 12 13 14 13 14 14 13 12 11 10 10 13 16 16 16 16 17 19 21 22 24 25 27 28 29 29 29 28 27 25 25 24 22 21 20 19 17 15 14 12 10 9 9 8 8 7 8 8 8 9 10 10 10 11 12 13 14 14 15 16 16 16 17 17 16 16 16 16 16 17 17 17 17
6 8 10 11 7 5 4 5 3 1 3 3 2 5 3 3 1 3 3 2 5 10 11 10 11 13 13 12 14 14 13 12 11 10 10 13 15 15 16 17 18 19 21 23 24 24 26 29 30 30 29 28 27 26 25 23 22 20 19 17 15 14 12 10 8 7 6 6 5 6 6 7 8 9 10 10 11 12 13 14 14 15 15 16 16 16 16 16 15 15 15 16 16 16 16 16 17
Wind_Direction
354 356 355 349 354 316 294 328 171 94 326 104 82 119 98 6 330 295 135 134 235 90 324 322 297 284 307 320 349 354 337 356 11 5 59 66 352 16 182 163 3 177 172 174 172 173 175 171 172 175 174 176 177 173 172 170 165 166 161 151 145 136 132 131 134 134 132 128 125 125 122 121 118 111 110 110 104 96 95 98 93 92 92 88 82 80 79 76 67 52 38 32 29 24 17 14 18
353 356 351 354 5 325 171 312 228 123 149 113 92 48 76 252 240 87 78 57 39 44 334 312 263 263 288 286 290 277 354 346 355 5 57 21 44 52 191 173 37 174 172 175 172 170 175 176 174 177 179 177 179 178 175 173 168 169 167 155 148 142 137 135 138 139 139 136 133 132 128 127 124 118 115 113 117 110 107 108 98 89 86 86 80 76 76 74 62 44 33 27 22 16 10 359 344
351 351 342 338 15 1 157 263 193 138 139 110 103 90 56 202 97 68 47 24 18 351 307 287 233 254 255 218 263 319 67 55 345 339 68 18 36 21 203 187 36 173 176 176 172 169 176 183 179 180 183 178 181 182 180 178 174 173 172 162 154 148 143 139 141 144 145 144 140 139 136 132 129 124 110 105 124 126 121 113 104 91 87 88 79 72 64 51 33 24 23 23 20 14 12 8 356
354 352 339 274 224 73 217 90 128 142 125 109 109 113 255 85 65 39 18 356 346 315 293 270 209 83 282 10 23 329 50 73 47 354 351 39 12 0 179 181 209 175 180 179 175 171 176 189 184 181 184 182 183 183 184 183 180 179 176 168 160 155 154 148 144 147 147 149 148 146 144 140 140 128 106 95 122 138 130 121 116 94 84 78 68 62 45 26 10 4 8 16 14 7 6 5 4
4 2 9 251 237 46 270 88 116 134 101 97 108 115 143 41 39 20 6 354 347 306 306 297 25 90 276 9 333 337 25 15 56 7 354 28 0 6 161 162 103 174 180 181 179 174 182 192 185 184 187 185 185 186 189 187 185 185 181 175 168 169 171 157 153 156 148 152 155 154 154 150 150 139 120 102 122 144 138 134 122 85 78 70 60 53 44 27 7 357 3 10 4 0 358 356 358
3 3 44 69 106 18 207 132 130 100 65 4 94 106 86 29 0 346 335 24 95 199 309 314 352 312 146 77 307 351 8 331 349 2 348 328 340 24 158 143 110 169 178 183 182 176 190 191 183 186 190 189 189 192 195 193 192 191 187 184 178 179 189 174 165 168 156 158 162 166 167 158 165 161 134 102 115 135 134 139 121 96 89 76 66 53 47 32 8 3 6 4 356 352 351 350 354
354 328 53 68 113 295 189 118 112 104 70 338 51 82 62 37 348 324 314 143 148 153 192 42 322 285 95 63 266 43 22 3 343 339 333 321 341 127 156 131 112 168 178 183 184 179 197 192 183 188 193 195 195 199 201 199 197 196 193 189 185 179 189 185 173 181 171 164 164 173 175 166 184 182 149 109 112 123 128 133 122 113 98 85 83 64 50 33 17 11 359 353 348 346 347 350 355
4 6 270 326 105 36 117 111 95 81 88 298 326 345 3 3 321 308 357 104 49 60 350 83 285 290 83 320 49 84 38 17 358 354 351 348 28 137 153 129 117 166 179 183 185 185 201 193 188 190 194 198 201 205 206 207 203 201 198 192 193 184 187 186 175 192 185 174 171 173 173 169 194 195 168 137 120 121 127 132 131 125 112 104 103 78 53 27 3 348 341 344 345 346 352 356 359
16 19 226 228 104 108 117 116 100 65 90 230 279 263 311 336 292 293 343 103 49 316 352 8 296 344 67 134 89 94 35 21 17 18 19 30 47 124 143 127 117 155 181 186 187 187 198 195 195 196 197 201 204 209 210 212 208 205 204 200 204 196 194 190 182 198 195 187 187 183 176 173 206 213 194 183 149 135 133 136 143 141 130 111 79 31 16 1 344 338 338 343 347 349 354 357 0
29 24 192 137 132 145 140 133 119 122 96 291 283 284 301 306 264 280 302 68 63 320 38 5 292 14 24 116 86 85 23 18 21 20 20 30 42 92 127 123 107 129 180 190 188 183 196 200 202 201 203 204 206 212 213 214 215 216 215 211 212 207 209 202 191 202 204 194 197 203 190 183 215 237 229 214 189 165 153 147 154 153 129 88 38 4 3 359 347 342 344 344 346 349 351 354 359
199 48 298 173 163 165 157 145 127 116 103 245 245 292 317 267 253 242 262 43 49 315 76 182 204 42 350 120 77 93 34 13 13 10 14 23 34 67 102 111 96 95 162 190 193 189 195 203 205 207 209 207 207 213 217 217 220 224 222 220 217 210 212 213 205 212 218 202 197 212 208 200 222 249 252 235 216 195 176 166 162 152 117 81 40 19 10 2 352 343 343 344 346 348 349 352 357
214 83 252 192 165 166 140 136 125 108 127 158 132 92 7 242 250 240 280 35 17 289 92 280 23 9 223 132 108 116 45 15 8 3 13 22 27 47 72 92 98 99 125 178 194 200 198 203 208 212 215 213 211 213 219 219 218 222 224 227 226 217 216 217 216 222 230 216 204 210 218 215 226 248 261 253 229 209 194 182 171 159 138 83 42 26 21 6 351 344 344 347 347 348 350 354 357
47 118 216 162 70 75 127 131 126 126 140 143 101 93 214 245 270 4 343 16 305 317 56 355 338 297 266 118 148 151 30 9 3 7 21 27 33 42 59 78 99 110 120 148 185 201 203 207 210 213 219 220 219 218 220 222 221 222 223 229 232 229 225 218 223 231 233 228 219 215 221 222 229 243 259 264 237 220 207 186 178 167 151 71 30 24 27 16 2 357 355 354 352 352 353 354 357
20 90 264 128 68 126 140 131 146 173 147 127 59 58 225 248 344 336 318 336 84 39 22 1 312 295 307 67 172 132 1 354 357 16 26 32 49 52 64 72 89 111 128 140 167 191 205 212 212 214 219 222 225 227 225 225 227 225 222 225 231 232 227 219 224 240 243 239 233 228 229 228 235 243 255 265 242 224 215 183 182 179 162 56 17 15 16 16 13 9 4 360 357 356 356 355 353
49 148 59 118 147 163 179 142 154 184 148 131 76 356 249 163 351 277 324 335 48 66 309 217 302 305 3 321 28 13 338 343 355 18 25 35 64 60 60 68 79 88 119 141 168 184 197 205 213 217 217 218 221 228 229 229 231 231 228 225 230 232 230 227 230 246 254 251 243 237 236 237 240 247 256 266 255 227 224 207 207 206 171 8 355 359 4 7 8 9 7 1 359 0 360 358 350
47 167 126 133 160 184 187 158 168 181 146 136 71 327 250 140 171 262 28 324 317 102 299 59 32 337 14 359 357 341 333 350 3 19 32 53 71 55 52 62 68 64 79 109 165 187 198 199 206 215 216 217 214 220 226 230 234 234 234 231 231 230 230 233 234 244 256 260 252 241 239 243 245 252 258 261 264 245 231 236 240 255 252 297 329 337 352 0 1 7 9 1 359 0 2 1 353
281 234 168 141 169 190 179 169 178 141 128 140 65 306 280 130 158 174 11 275 281 292 42 58 57 35 43 38 355 337 345 10 26 41 46 46 47 36 33 39 43 39 37 38 17 209 209 206 205 209 217 219 213 216 222 225 231 234 233 235 236 230 231 237 241 242 251 258 253 244 240 249 251 257 263 258 261 256 237 229 231 245 248 255 293 325 337 352 354 2 11 5 358 357 0 4 0
264 226 179 148 161 165 170 165 162 98 115 141 123 323 299 317 111 108 216 186 289 292 107 89 78 77 78 60 18 3 9 24 38 44 41 36 31 22 20 19 21 17 10 9 349 313 251 226 214 209 215 222 215 210 217 220 226 231 227 231 238 238 239 242 244 244 251 253 250 245 239 245 247 252 259 256 255 257 244 234 248 249 243 260 271 303 321 336 341 352 9 6 1 356 357 3 4
303 155 282 138 132 95 142 142 142 132 101 126 142 239 278 314 0 354 270 159 322 287 126 132 117 93 73 43 24 19 22 29 36 38 38 33 25 19 14 7 10 10 4 4 354 333 298 263 232 218 213 220 220 207 210 215 220 227 223 225 233 238 246 247 244 242 246 248 249 246 241 244 243 242 249 248 249 258 254 243 263 269 251 260 264 276 303 315 322 339 355 357 2 359 355 359 3
269 232 294 112 121 80 165 179 149 105 80 130 149 167 251 300 332 309 308 308 237 121 86 155 136 58 38 27 18 15 23 32 34 36 38 33 26 19 9 3 1 359 0 2 355 344 321 285 256 234 217 212 220 209 204 208 213 217 218 222 225 230 238 244 245 242 245 250 253 247 243 247 242 238 243 250 251 250 255 246 254 266 261 257 257 258 274 293 306 328 338 344 359 1 356 355 360
166 290 42 100 149 156 156 204 163 113 205 243 139 180 227 106 296 278 298 297 191 113 45 8 12 29 21 20 14 12 23 30 32 34 35 30 25 19 9 2 355 353 358 0 356 350 336 304 271 246 226 211 211 209 202 203 209 211 215 216 219 225 227 232 238 235 238 248 249 242 240 245 243 242 240 242 244 240 245 246 244 250 252 250 248 243 257 276 295 325 333 342 353 0 357 353 356
154 49 43 98 177 164 127 161 148 142 181 189 192 219 187 118 239 236 253 283 12 69 28 30 39 44 28 18 15 20 28 28 29 28 28 26 20 16 8 2 360 0 2 2 359 354 349 332 290 248 225 206 200 210 204 201 207 210 215 211 212 221 227 239 241 232 230 237 243 240 242 246 245 245 242 236 230 232 239 244 248 249 249 247 238 229 247 265 277 313 327 340 350 359 357 351 352
279 105 90 153 203 252 121 148 161 163 186 202 216 212 124 208 241 202 235 301 48 45 30 53 58 53 40 33 29 32 33 29 29 24 20 20 16 12 6 3 1 2 2 2 6 4 3 1 332 262 208 193 189 205 197 196 209 213 214 210 214 219 226 243 246 235 235 244 250 245 244 246 245 246 245 237 226 228 236 243 257 261 259 254 239 231 240 256 284 305 302 312 344 360 352 347 349
289 115 145 182 209 256 164 147 166 185 219 214 128 157 208 228 238 136 131 75 75 73 62 67 68 61 52 48 38 35 36 32 33 26 21 20 14 9 5 5 2 2 5 7 17 19 19 25 9 340 169 165 165 179 175 181 200 207 209 199 213 232 243 250 250 260 252 251 257 253 250 249 251 251 247 240 231 230 235 238 258 264 259 253 243 239 240 252 284 305 295 296 326 350 345 342 346
270 47 124 146 203 246 240 224 215 214 238 190 157 221 229 223 175 122 117 115 107 99 82 71 73 65 55 48 39 34 32 28 26 23 22 18 12 14 13 11 9 9 13 18 27 30 35 39 31 66 133 137 147 156 151 164 176 177 188 177 171 205 276 278 227 41 22 278 273 276 276 261 255 254 256 248 234 228 236 245 254 252 249 257 261 254 244 247 267 284 291 301 314 330 333 336 344
47 20 134 215 232 254 244 245 239 226 227 167 198 233 193 154 155 125 118 134 131 118 90 65 66 59 49 41 35 32 30 24 18 14 13 12 13 17 18 15 13 11 16 28 36 40 49 53 54 72 109 121 136 143 130 137 155 147 152 140 118 134 115 97 99 73 57 48 31 1 21 302 250 252 274 248 223 214 256 283 265 247 265 286 290 271 247 246 263 276 287 302 312 318 323 334 344
33 327 275 257 265 270 228 240 249 229 212 188 220 229 119 135 217 163 129 148 150 126 89 59 62 59 48 42 34 29 31 24 16 14 13 16 18 15 13 13 13 14 22 34 40 46 56 62 70 82 103 117 123 134 133 127 138 145 149 148 110 112 107 102 95 75 68 62 56 61 69 74 95 97 355 240 204 196 244 280 270 255 279 288 286 268 247 249 267 276 279 287 297 309 322 338 343
6 315 282 256 258 251 217 244 267 227 208 198 212 184 126 163 213 73 112 156 172 129 92 67 66 67 59 56 44 33 31 25 19 21 22 19 15 11 12 11 8 15 29 36 41 52 63 68 79 88 104 124 125 132 143 131 119 125 136 136 103 96 97 96 89 78 78 74 69 71 74 79 85 80 68 57 48 338 15 46 322 273 307 291 265 250 247 257 268 272 274 281 292 304 318 326 329
351 323 301 289 276 247 82 36 270 262 167 176 200 188 169 172 146 72 98 152 164 135 102 83 78 77 68 57 50 43 31 26 28 26 24 17 12 12 13 12 11 21 36 44 51 60 67 71 84 94 102 121 124 119 124 122 110 108 116 116 100 94 97 95 92 88 82 76 72 71 72 73 76 76 65 53 49 39 33 40 47 44 28 8 318 269 263 271 277 281 287 295 301 308 316 312 317
243 306 315 305 289 231 77 14 277 257 136 160 225 237 182 149 117 77 96 160 176 161 114 100 87 72 61 53 51 53 37 31 35 29 22 17 14 17 16 22 32 40 47 56 63 67 72 76 88 99 100 107 112 106 106 109 106 102 104 106 103 100 100 98 94 92 86 81 78 76 75 70 69 75 67 51 54 56 49 50 55 44 22 14 18 10 343 327 322 322 329 331 323 319 317 310 314
282 267 239 290 290 168 101 47 306 262 139 168 229 260 193 142 130 71 51 202 216 209 120 98 80 69 56 60 57 59 51 42 41 32 26 22 19 23 25 36 51 61 63 68 74 77 83 87 91 98 100 102 104 103 102 103 103 100 100 101 101 99 98 95 91 91 89 86 84 81 82 81 77 80 80 70 62 58 57 60 62 57 46 29 34 44 42 36 32 16 1 351 342 339 338 332 334
1 273 233 175 254 244 102 78 349 334 120 169 221 259 286 152 141 71 35 210 209 203 133 93 76 73 57 71 68 71 71 59 49 36 26 23 21 23 32 47 62 73 77 79 84 87 91 94 96 98 101 102 102 101 101 101 100 99 98 98 99 98 96 94 92 92 92 91 90 88 87 87 86 85 86 86 82 76 71 72 71 67 64 59 54 51 42 40 36 21 6 354 348 350 350 347 346
164 254 258 223 226 271 1 108 51 0 119 170 219 260 316 149 138 82 57 173 184 178 138 115 96 80 73 80 75 88 86 69 50 32 22 21 21 19 31 57 74 84 88 90 92 94 95 97 101 101 101 103 104 104 104 102 102 102 101 100 99 99 97 94 93 93 92 91 90 88 87 87 87 87 86 85 83 82 80 79 78 74 73 74 71 64 56 55 50 40 32 24 18 13 3 351 344
195 205 257 257 229 254 280 148 98 3 247 216 211 248 256 141 133 104 81 147 179 165 150 145 135 113 111 100 90 95 84 65 38 22 17 15 20 22 37 68 85 93 97 99 101 101 101 102 105 105 104 105 106 107 106 104 103 104 103 101 99 98 96 94 93 92 90 89 89 88 87 86 86 85 84 82 80 80 80 79 78 77 77 78 76 75 72 70 67 63 58 53 50 43 29 10 353
199 190 236 252 229 235 251 242 85 26 257 253 237 249 245 168 154 158 118 166 193 162 154 158 156 161 147 142 131 103 88 75 38 16 15 17 23 28 49 79 92 100 103 106 108 110 110 109 110 110 108 106 106 106 105 103 102 100 99 98 96 94 93 93 91 89 88 88 88 88 87 86 84 84 83 82 80 79 79 77 76 74 73 72 72 72 69 65 64 63 60 57 52 45 37 24 10
150 180 241 256 254 248 234 229 29 18 273 259 253 261 259 208 183 176 143 159 182 159 159 171 172 174 162 160 156 134 115 91 51 24 28 29 39 46 67 85 93 103 108 110 113 115 116 115 114 113 112 110 108 105 103 102 101 98 96 93 91 89 89 89 88 88 88 87 87 86 86 85 83 83 82 81 80 80 80 78 76 73 69 67 66 66 62 58 56 54 52 48 43 38 31 24 15
123 159 238 250 260 267 208 128 70 34 271 259 253 265 271 253 192 159 148 159 180 180 184 190 183 180 177 169 159 147 130 111 85 64 56 46 56 73 88 94 96 103 109 112 114 117 117 118 118 116 116 115 112 109 106 102 99 96 94 90 88 87 86 86 86 86 86 86 86 85 83 82 81 80 79 80 80 80 78 77 75 72 69 67 66 66 62 60 56 53 48 40 39 38 29 24 18
187 222 241 249 249 260 243 129 100 95 251 260 256 262 268 262 177 135 159 184 196 201 198 201 187 181 181 168 160 150 135 133 131 95 76 61 64 82 94 98 101 103 107 111 113 116 116 117 119 118 118 118 116 113 110 107 103 99 96 93 91 89 87 85 85 85 85 86 85 84 83 82 81 80 79 80 79 79 77 74 73 73 72 69 67 66 63 60 57 55 53 41 40 43 38 29 24
211 224 244 256 246 262 262 144 119 184 230 259 289 274 268 262 149 135 178 192 196 214 220 225 193 189 184 164 155 151 151 144 133 114 97 85 68 76 87 94 101 103 105 109 111 114 114 115 118 117 117 117 116 114 113 110 108 105 102 98 95 92 88 87 86 85 86 85 85 84 83 82 81 81 80 79 78 78 77 76 74 74 74 71 68 65 61 59 57 55 54 50 44 44 45 36 32
217 213 232 244 214 229 251 159 112 187 230 298 329 293 272 260 176 149 170 183 174 178 210 235 216 213 181 153 160 161 163 157 145 137 119 107 86 76 80 92 103 107 108 110 113 114 115 116 117 117 116 116 114 113 112 111 109 108 105 102 99 95 92 90 88 86 85 85 85 85 84 83 83 82 81 80 79 79 78 77 76 74 73 72 69 65 62 60 58 57 54 54 50 42 43 38 36
215 215 229 241 221 223 243 90 92 210 205 237 284 286 274 253 227 194 151 165 180 169 184 198 200 208 179 165 193 187 177 169 155 144 126 108 95 82 82 97 106 110 112 113 114 116 117 118 118 118 117 116 115 114 113 112 111 108 106 103 100 97 93 90 87 83 82 82 82 84 84 84 84 83 82 81 79 78 78 77 75 74 72 71 69 66 64 60 59 58 55 55 54 47 41 39 38
224 218 223 238 241 232 228 133 218 257 232 188 233 266 264 200 234 224 149 169 186 172 193 202 193 190 196 195 189 187 186 181 151 129 119 103 100 95 88 92 96 103 112 115 116 118 120 120 120 120 119 119 119 119 119 118 116 113 111 108 104 99 92 87 85 83 82 82 82 83 84 84 83 82 81 79 78 77 76 75 74 72 71 69 68 66 64 60 57 56 55 54 55 52 45 41 38
245 219 213 227 238 233 211 183 201 256 266 90 224 255 257 250 247 196 150 196 194 185 208 207 200 196 197 197 187 183 179 169 146 124 124 119 116 113 103 91 87 103 116 119 121 123 125 125 125 124 123 123 123 123 123 122 121 120 117 112 107 102 97 94 94 93 90 89 87 85 83 81 81 80 79 77 76 75 74 73 71 70 69 67 66 64 63 60 56 55 54 52 52 51 50 44 35
237 83 188 203 207 210 205 196 207 247 324 114 202 233 267 271 262 129 144 214 214 206 209 206 206 201 194 193 186 181 176 163 154 149 146 140 132 121 115 103 101 116 122 124 126 128 130 131 131 129 127 127 127 126 126 124 122 119 115 110 106 104 103 102 100 98 96 94 90 87 83 80 78 77 77 75 73 72 71 70 68 67 67 65 64 62 60 59 56 54 52 50 50 49 49 47 37
287 73 120 156 176 191 185 195 217 245 308 243 202 167 250 257 224 137 146 231 244 221 202 199 201 197 191 189 183 176 170 165 164 164 156 148 143 132 125 120 122 128 128 127 129 130 132 133 133 132 130 129 129 129 127 124 121 116 112 110 108 107 106 105 103 100 98 95 91 88 84 80 77 74 73 72 70 69 67 66 65 64 63 62 61 59 57 55 52 50 48 47 47 45 45 45 40
132 123 100 91 85 92 135 201 202 160 233 247 209 174 224 264 207 184 177 232 246 222 190 192 192 189 188 183 178 173 168 172 177 169 160 155 150 144 138 133 132 133 130 129 129 128 129 130 131 130 128 128 128 128 126 122 118 115 113 112 111 111 110 108 106 102 98 95 91 88 84 81 77 74 71 70 68 67 65 63 62 61 60 58 56 54 51 49 46 45 44 43 42 42 40 39 36
142 139 108 95 89 90 104 171 164 210 235 241 213 186 211 261 212 201 207 215 225 173 166 181 180 182 185 180 175 173 173 178 178 172 166 162 156 154 151 141 138 137 133 132 130 129 128 128 130 129 127 128 128 126 124 120 118 116 115 116 115 115 114 112 108 104 100 97 92 88 84 80 76 73 69 65 64 62 59 57 56 55 53 51 49 47 44 42 40 38 37 36 35 35 34 33 30
162 155 140 131 119 143 172 146 174 241 235 201 178 182 213 239 218 204 205 142 147 161 172 180 178 179 181 177 174 173 179 178 173 175 172 168 168 167 162 150 144 142 138 136 134 132 130 130 131 129 128 129 127 126 124 121 120 119 119 119 119 118 117 113 109 105 101 97 93 88 84 80 75 72 68 64 61 59 57 54 52 51 49 48 45 43 40 38 36 34 32 30 29 29 27 26 24
214 167 164 184 187 181 214 197 196 242 233 103 67 154 218 241 241 252 251 149 162 172 161 180 177 176 177 174 172 173 178 178 176 179 177 176 176 172 168 161 154 151 146 142 138 135 133 132 132 131 129 129 129 127 126 124 123 122 122 121 120 118 115 111 108 104 101 97 94 91 87 82 77 72 66 62 58 56 54 51 49 48 46 45 42 40 37 34 34 32 29 27 26 24 21 21 20
196 181 180 194 187 196 220 203 225 258 222 80 94 176 223 252 247 259 266 90 90 79 42 209 177 173 173 168 169 173 175 179 182 183 182 181 180 175 171 166 162 160 154 148 143 139 136 135 135 133 132 133 132 130 128 126 125 124 124 122 119 116 112 108 105 103 100 96 93 89 84 78 72 67 62 58 54 51 50 47 45 44 42 40 37 34 32 30 29 28 25 23 23 21 18 17 15
193 190 196 209 200 213 224 209 233 263 113 107 134 188 207 204 163 297 330 49 53 74 51 17 166 164 159 157 165 173 178 183 185 185 187 184 181 177 174 171 167 164 159 153 147 143 140 139 138 137 136 136 135 132 130 128 126 124 123 120 118 115 111 107 104 100 97 93 89 83 78 74 68 64 58 53 49 46 44 41 39 37 34 33 30 28 27 25 23 23 21 18 17 16 15 14 11
189 78 224 235 234 214 237 304 4 47 39 181 187 227 233 199 124 93 70 87 113 108 93 135 162 154 149 161 174 180 183 185 184 185 188 186 183 180 178 176 172 167 163 158 153 148 145 143 142 141 140 139 138 135 133 130 127 125 122 119 116 113 109 105 102 98 93 88 82 75 70 65 60 54 47 43 38 36 33 31 28 26 24 22 20 19 19 17 16 17 16 13 13 12 10 10 8
150 173 200 212 318 50 138 237 70 55 271 227 176 224 248 222 219 131 118 156 154 149 154 163 166 160 164 178 183 185 187 183 183 187 188 185 184 185 184 182 177 173 169 164 159 155 151 149 147 145 143 142 141 138 135 132 130 127 124 121 117 112 108 104 100 94 89 82 76 70 64 58 53 46 40 35 31 28 25 23 22 20 18 17 15 14 13 11 12 12 11 9 8 8 7 5 2
141 187 191 139 4 313 212 244 173 179 253 253 181 218 213 188 212 130 138 181 186 188 176 165 171 174 181 189 188 188 185 180 183 187 188 187 185 187 188 186 183 178 173 169 166 161 156 154 152 150 148 146 144 142 139 137 135 131 127 123 118 113 108 103 98 93 87 82 76 69 63 56 50 42 35 30 25 22 20 18 18 17 16 14 13 12 10 10 11 11 9 7 5 4 5 2 358
157 203 169 124 219 207 175 225 234 202 240 261 196 214 220 204 196 165 183 198 195 190 177 174 185 186 190 193 190 188 181 180 188 190 190 188 187 188 189 188 186 181 177 174 171 166 161 158 156 153 152 150 148 146 144 141 139 134 130 126 121 115 110 104 99 95 89 83 76 68 60 52 45 38 32 26 21 18 17 16 16 15 14 13 11 10 9 8 9 8 6 4 0 359 1 359 355
1 197 174 220 262 214 175 196 224 217 236 260 221 206 211 209 191 176 191 199 187 180 178 188 193 192 194 192 187 187 187 188 191 190 189 186 185 190 191 189 185 183 182 179 175 171 165 162 159 157 155 154 152 151 148 145 142 139 135 130 126 120 115 109 104 98 91 82 73 64 56 48 40 34 29 23 19 17 15 14 13 12 11 9 7 6 4 4 4 3 1 358 355 354 356 354 351
173 183 182 187 193 268 255 228 179 229 240 243 254 257 208 182 187 185 191 194 180 175 179 190 195 196 196 192 188 187 188 189 189 187 184 180 183 189 189 187 186 186 186 184 180 176 170 166 163 161 160 159 157 156 153 151 148 145 141 136 132 127 122 118 111 102 91 81 72 64 56 48 38 31 25 21 18 14 12 10 9 8 6 4 3 1 360 360 359 357 355 353 351 351 352 350 348
189 191 187 186 176 157 208 223 185 198 250 224 251 274 231 143 160 203 186 170 169 175 178 183 193 196 194 193 193 191 188 188 187 181 174 176 183 186 184 184 187 188 190 189 185 181 176 172 168 167 166 165 164 162 160 158 155 151 148 144 141 136 132 128 122 110 98 89 79 67 54 42 31 23 18 14 11 8 6 4 3 2 1 0 359 358 358 357 356 354 352 350 350 349 349 347 346